Weather History for Philip, SD

Change the Weather History Date:

Saturday, December 22, 2012

  Actual Average Record
Temperature  
Mean Temperature 16 °F 22 °F  
Max Temperature 24 °F 34 °F 61 °F (1972)
Min Temperature 8 °F 9 °F -30 °F (1989)
Degree Days  
Heating Degree Days 49 43  
Month to date heating degree days 801 908  
Since 1 July heating degree days 2274 2543  
Cooling Degree Days 0 0  
Month to date cooling degree days 0 0  
Year to date cooling degree days 1202 818  
Moisture  
Dew Point 11 °F    
Average Humidity 82    
Maximum Humidity 92    
Minimum Humidity 71    
Precipitation  
Precipitation 0.00 in 0.02 in 0.12 in (1968)
Month to date precipitation 0.19 0.31  
Year to date precipitation 7.14 17.23  
Sea Level Pressure  
Sea Level Pressure 30.11 in    
Wind  
Wind Speed 7 mph (North)    
Max Wind Speed 18 mph    
Max Gust Speed 23 mph    
Visibility 10 miles    
Events      
T = Trace of Precipitation, MM = Missing Value Source: NWS Daily Summary

Daily Weather History Graph

Daily Weather History Graph

Search for Another Location

Airport:

Trip Planner

Search our weather history database for the weather conditions in past years. The results will help you decide how hot, cold, wet, or windy it might be!

Date:

Astronomy

Dec. 22, 2012 Rise Set
Actual Time 7:18 AM MST 4:11 PM MST
Civil Twilight 6:45 AM MST 4:45 PM MST
Nautical Twilight 6:09 AM MST 5:21 PM MST
Astronomical Twilight 5:33 AM MST 5:56 PM MST
Moon 12:36 PM MST (12/22) 1:59 AM MST (12/22)
Length of Visible Light 9h 59m
Length of Day
8h 52m
Waxing Gibbous, 74% of the Moon is Illuminated
Dec 22
Waxing Gibbous
Dec 28
Full
Jan 4
Last Quarter
Jan 11
New
Jan 18
First Quarter

Hourly Weather History & Observations

Time (MST) Temp. Windchill Dew Point Humidity Pressure Visibility Wind Dir Wind Speed Gust Speed Precip Events Conditions
12:55 AM 10.9 °F 4.7 °F 8.1 °F 88% 29.99 in 10.0 mi West 3.5 mph - N/A   Clear
1:55 AM 12.0 °F - 9.0 °F 88% 29.99 in 10.0 mi Calm Calm - N/A   Clear
2:55 AM 10.9 °F 1.4 °F 8.1 °F 88% 30.00 in 10.0 mi West 5.8 mph - N/A   Clear
3:55 AM 12.0 °F 2.7 °F 8.1 °F 84% 30.00 in 10.0 mi West 5.8 mph - N/A   Clear
4:55 AM 12.0 °F 2.7 °F 9.0 °F 88% 30.03 in 10.0 mi West 5.8 mph - N/A   Clear
5:55 AM 12.9 °F 2.6 °F 9.0 °F 84% 30.04 in 10.0 mi West 6.9 mph - N/A   Clear
6:55 AM 16.0 °F 6.3 °F 10.9 °F 81% 30.08 in 10.0 mi West 6.9 mph - N/A   Clear
7:55 AM 15.1 °F 4.2 °F 10.9 °F 84% 30.12 in 10.0 mi West 8.1 mph - N/A   Clear
8:55 AM 21.9 °F 11.7 °F 15.1 °F 75% 30.14 in 10.0 mi NNW 9.2 mph - N/A   Clear
9:55 AM 21.9 °F 11.0 °F 15.1 °F 75% 30.17 in 10.0 mi North 10.4 mph - N/A   Clear
10:55 AM 21.9 °F 8.7 °F 15.1 °F 75% 30.19 in 10.0 mi North 15.0 mph 23.0 mph N/A   Clear
11:55 AM 23.0 °F 12.4 °F 15.1 °F 72% 30.17 in 10.0 mi North 10.4 mph - N/A   Clear
12:55 PM 23.0 °F 13.9 °F 15.1 °F 72% 30.16 in 10.0 mi NNW 8.1 mph - N/A   Clear
1:55 PM 23.0 °F 13.9 °F 15.1 °F 72% 30.16 in 10.0 mi NNW 8.1 mph - N/A   Clear
2:55 PM 21.9 °F 13.4 °F 14.0 °F 72% 30.16 in 10.0 mi North 6.9 mph - N/A   Clear
3:55 PM 19.0 °F 12.3 °F 12.0 °F 74% 30.16 in 10.0 mi NNE 4.6 mph - N/A   Clear
4:55 PM 14.0 °F 6.5 °F 10.0 °F 84% 30.18 in 10.0 mi North 4.6 mph - N/A   Clear
5:55 PM 12.0 °F 4.1 °F 8.1 °F 84% 30.19 in 10.0 mi NNE 4.6 mph - N/A   Clear
6:55 PM 10.9 °F 0.2 °F 7.0 °F 84% 30.17 in 10.0 mi NNE 6.9 mph - N/A   Clear
7:37 PM 10.4 °F 4.0 °F 6.8 °F 85% 30.06 in 10.0 mi SSE 3.5 mph - N/A   Mostly Cloudy
7:55 PM 10.9 °F - 8.1 °F 88% 30.18 in 10.0 mi Calm Calm - N/A   Overcast
8:46 PM 12.2 °F 0.7 °F 10.4 °F 92% 30.05 in 9.0 mi ENE 8.1 mph - N/A   Overcast
8:55 PM 14.0 °F 3.9 °F 10.9 °F 88% 30.15 in 9.0 mi East 6.9 mph - N/A   Overcast
9:55 PM 14.0 °F 1.2 °F 10.9 °F 88% 30.14 in 8.0 mi East 10.4 mph - N/A   Overcast
10:55 PM 12.0 °F -0.4 °F 10.0 °F 92% 30.14 in 9.0 mi East 9.2 mph - N/A   Overcast
11:32 PM 10.4 °F -0.4 °F 6.8 °F 85% 30.04 in 10.0 mi East 6.9 mph - N/A   Scattered Clouds
11:55 PM 9.0 °F -2.2 °F 6.1 °F 88% 30.14 in 10.0 mi East 6.9 mph - N/A   Clear